Pagrindinis puslapis
METAR-TAF:

METAR-TAF

Oro uostai :

Odessa-Schlemeyer Field

Odessa, Teksasas, Jungtinės Amerikos Valstijos

platuma: 31-55-17N, ilguma: 102-23-30W, Aukštis: 914 m

Dabartinis oras

Ataskaita buvo paskelbta 1 valandą ir 5 minutes, ne 02:53 UTC
Vėjas 14 kt iš Pietų/Pietryčių
Temperatūra 27°C
Drėgmė 48%
Slėgis 1016 hPa
Matomumas: 16.1 km
Giedras dangus

METAR: KODO 160253Z AUTO 16014KT 10SM CLR 27/15 A3001 RMK AO2 SLP113 T02670150 53013

Laikas: 22:58 (03:58 UTC)


TAF: trūkstamas

Orai ataskaitas ir orų prognozės (METAR, TAF).

turimą stotys yra geltonos ir raudonos taškus žemėlapyje.

Perkelti pele per norėdami pamatyti stoties vardą.

Tada spustelėkite, norėdami matyti oro stebėjimo ir prognozės.

Norėdami pakeisti žemėlapį: spustelėkite ant žalios mygtukų su juodo kryžiaus žemyn,; žalią mygtuką su brūkšneliu, jei norite nutolinti; arba žalių rodyklių gretimoms žemėlapius.


METAR-TAF: